Вернуться в каталог

IABS R/B

АктивенGEO
NORAD 26054·ROCKET BODY·🇺🇸 United States

Запущен Jan 21, 2000 с Cape Canaveral Space Force Station

Loading…

TLE

СвежийSource: Space-Track

Эпоха: Sep 12, 2026, 21:49 UTC

1 26054U 00001C   26255.90921313 -.00000007  00000-0  00000-0 0  9994
2 26054  14.1254 358.8811 0027870 331.1681  28.6995  1.01181525 26974

Отслеживайте IABS R/B в реальном времени с AllMySat

Download on the App Store